Regional Weather Roundup
Issued by NWS Wakefield, VA

Home | Current Version | Previous Version | Text Only | Print | Product List | Glossary Off
Versions: 1 2 3 4 5 6 7 8 9 10 11 12 13 14 15 16 17 18 19 20 21 22 23 24 25 26 27 28 29 30 31 32 33 34 35 36 37 38 39 40 41 42 43 44 45 46 47 48 49 50

711
ASUS41 KAKQ 220815
RWRAKQ

REGIONAL WEATHER ROUNDUP
NATIONAL WEATHER SERVICE WAKEFIELD VA
300 AM EST SUN JAN 22 2017

Note: "fair" indicates few or no clouds below 12,000 feet with no
significant weather and/or obstructions to visibility. * = Denotes
station may not report precipitation (e.g., rain,snow,etc.),
thunder or fog.

VAZ042-051-052>054-056-220900-
NORTHERN VIRGINIA

CITY           SKY/WX    TMP DP  RH WIND       PRES   REMARKS
WASH NATIONAL  LGT RAIN  47  47 100 NE8       29.72F FOG
DULLES         FOG       47  46  97 NE7       29.71S VSB 1/8
FORT BELVOIR   CLOUDY    46  46 100 CALM      29.71S
QUANTICO       FOG       47  47 100 NE8       29.72S VSB 3/4
FREDERICKSBRG* RAIN      48  48 100 N3        29.70S VSB 3/4
STAFFORD*      CLOUDY    47  47 100 N3        29.74S FOG
WARRENTON      FOG       49  47  91 CALM      29.71R VSB 1/2
CULPEPER*      FOG       49  49 100 CALM      29.71S VSB 1
MANASSAS*      NOT AVBL
LEESBURG*      FOG       48  48 100 NE6       29.72F VSB 1/2
WINCHESTER     FOG       45  43  93 N3        29.71F VSB 1/4
FRONT ROYAL*   CLOUDY    45  45 100 CALM      29.70F VSB 1/4
LURAY*         CLOUDY    46  46 100 NE3       29.69F FOG
$$

VAZ048-049-060>072-079>083-220900-
CENTRAL AND SOUTH CENTRAL VIRGINIA

CITY           SKY/WX    TMP DP  RH WIND       PRES   REMARKS
RICHMOND       LGT RAIN  49  49 100 NE10      29.66F FOG
CHESTERFIELD*  CLOUDY    50  36  57 N5        29.68R
PETERSBURG*    LGT RAIN  48  48 100 CALM      29.68R
HANOVER        CLOUDY    49  47  93 VRB3      29.69S
TAPPAHANNOCK*  CLOUDY    47  47 100 N7        29.68F
QUINTON*       CLOUDY    48  48 100 N8        29.67R
CHARLOTTSVILLE FOG       50  48  93 NE5       29.70R VSB 1
GORDONSVILLE*  FOG       48  48 100 NE6       29.69R VSB 1/2
ORANGE*        FOG       50  50 100 CALM      29.71S VSB 1/2
LOUISA*        CLOUDY    52  52 100 NE6       29.68R FOG
BUMPASS*       CLOUDY    48  48 100 CALM      29.69S
FARMVILLE*     CLOUDY    51  51 100 CALM      29.68R
CREWE*         CLOUDY    50  50 100 CALM      29.68R
FORT PICKETT*  CLOUDY    50  46  88 N3        29.67S
CHASE CITY*    CLOUDY    50  49  95 CALM      29.67R
CLARKSVILLE*   CLOUDY    50  50 100 CALM      29.66R
SOUTH HILL*    CLOUDY    50  50 100 N6        29.71S
LAWRENCEVILLE* CLOUDY    50  49  97 CALM      29.66R
EMPORIA*       DRIZZLE   50  50 100 N5        29.67R
$$

VAZ088>098-220900-
SOUTHEAST VIRGINIA

CITY           SKY/WX    TMP DP  RH WIND       PRES   REMARKS
NORFOLK        CLOUDY    49  48  97 N7        29.63S FOG
VIRGINIA BEACH FOG       50  49  96 NW3       29.61S VSB 1/4
NORFOLK NAVAL  DRIZZLE   48  46  93 N9        29.65F FOG
WEST POINT*    CLOUDY    50  49  99 N3        29.68R
SALUDA*        CLOUDY    48  48 100 CALM      29.67R
NEWPORT NEWS   CLOUDY    50  49  96 NE6       29.65R FOG
LANGLEY AFB    CLOUDY    49  49 100 N7        29.64R FOG
FORT EUSTIS    CLOUDY    50  48  93 N5        29.62F
WILLIAMSBURG*  CLOUDY    52  52 100 CALM      29.66F
HR EXEC AP*    CLOUDY    52  48  87 N3        29.63S VSB 1
FRANKLIN*      FOG       50  49  97 N3        29.65R VSB 1
US460-WAKEFLD  CLOUDY    49  49 100 N3        29.65R FOG
$$

VAZ020-022-025-037-045-220900-
WEST CENTRAL AND SOUTHWEST VIRGINIA

CITY           SKY/WX    TMP DP  RH WIND       PRES   REMARKS
STAUNTON*      CLOUDY    46  45  98 CALM      29.72R FOG
WAYNESBORO*    CLOUDY    47  46  95 NW5       29.70R
HOT SPRINGS VA CLOUDY    48  48 100 E3        29.70R
LYNCHBURG      LGT RAIN  50  49  96 SW3       29.69S
DANVILLE       CLOUDY    52  52 100 NE8       29.66F
SOUTH BOSTON*  CLOUDY    51  50  96 N3        29.67S
MARTINSVILLE   CLOUDY    50  49  96 N3        29.70S
ROANOKE        CLOUDY    50  50 100 CALM      29.71R FOG
BLACKSBURG     CLOUDY    49  49 100 CALM      29.74R FOG
DUBLIN*        CLOUDY    50  50 100 CALM      29.72R FOG
MARION*        FOG       50  49  95 E5        29.70F VSB 1
HILLSVILLE*    FOG       48  48 100 CALM      29.69R VSB 1/4
RICHLANDS*     FAIR      48  48  99 E3        29.66F
WISE*          PTCLDY    50  50 100 SE3       29.65F
ABINGDON*      MOCLDY    50  50  98 E7        29.65F
$$

MDZ021>025-VAZ099-100-220900-
SOUTHERN MARYLAND AND THE DELMARVA PENINSULA

CITY           SKY/WX    TMP DP  RH WIND       PRES   REMARKS
PATUXENT RIVER CLOUDY    46  46 100 N13       29.68F FOG
BAY BRIDGE APT FOG       45  45 100 NE3       29.73S VSB 3/4
LEONARDTOWN    CLOUDY    45  45 100 CALM      29.71S VSB 1
DOVER          LGT RAIN  43  43 100 E6        29.72F
GEORGETOWN     CLOUDY    47  46  97 NE6       29.71F
EASTON         CLOUDY    48  47  94 E6        29.75F FOG
CAMBRIDGE      CLOUDY    46  46 100 CALM      29.69F
SALISBURY      CLOUDY    47  47 100 NE8       29.69F
OCEAN CITY     LGT RAIN  45  45 100 NE8       29.71F
WALLOPS ISLAND HVY RAIN  47  47 100 NE18      29.67F FOG
ACCOMACK*      RAIN      54  53  97 NE6       29.64F
$$

NCZ012>017-030>032-220900-
NORTH CENTRAL AND EASTERN NORTH CAROLINA

CITY           SKY/WX    TMP DP  RH WIND       PRES   REMARKS
ROANOKE RAPIDS RAIN      52  52 100 CALM      29.65R VSB 1/4
RALEIGH        FOG       53  53 100 N6        29.65S VSB 1/8
ELIZABETH CITY FOG       56  56 100 SW5       29.62S VSB 1/4
AHOSKIE*       DRZL/FOG  51  51  99 CALM      29.65R VSB 1/4
EDENTON*       FOG       52  52 100 CALM      29.64S VSB 1/4
CURRITUCK*     FOG       59  59 100 SW5       29.63S VSB 3/4
KILL DEVIL HLS NOT AVBL
MANTEO         CLOUDY    57  57 100 CALM      29.63S FOG
CAPE HATTERAS  CLOUDY    62  59  90 W10G25    29.65R FOG
TARBORO*       NOT AVBL
GOLDSBORO      PTCLDY    59  59 100 SW8       29.61F
WASHINGTON     CLOUDY    56  56  99 CALM        N/A  FOG
GREENVILLE     FOG       55  55 100 S3        29.67S VSB 1/2
NEW BERN       PTCLDY    59  58  96 SW8       29.66S
WILMINGTON     CLOUDY    59  58  96 SW8       29.69R
$$

VAZ048-220900-
ELSEWHERE

CITY           SKY/WX    TMP DP  RH WIND       PRES   REMARKS
HARRISBURG PA  FOG       42  42 100 CALM      29.74R VSB 1/8
BALTIMORE      FOG       45  45 100 NE6       29.73S VSB 1/4
ANNAPOLIS      LGT RAIN  45  43  93 NW3       29.73S VSB 1/2
ANDREWS AFB    FOG       45  45 100 NE6       29.69F VSB 1/2
PHILADELPHIA   FOG       45  44  97 E5        29.74F VSB 1/4
HENDERSON NC   CLOUDY    48  48  98 N3        29.66S
GREENSBORO     CLOUDY    52  52 100 N3        29.68R
ROCKY MOUNT    FOG       55  55 100 CALM      29.64R VSB 1/4
$$

VAZ100-220900-
MARINE

STATION/POSITION TIME  TEMP    WIND        PRES    WAVE   SWELL
                       AIR SEA DIR/SP/G            HT/PER HT/PER
                 (UTC) (F)     (DEG/KT/KT) (MB)    (FT/S) (FT/S)
CAPE MAY NJ      0748   44 42   70/  5/  7 1006.2F
LEWES DE         0748   44 42   70/  8/  8 1006.1F
OCEAN-CITY-INLET 0748   44 43   70/  5/ 10 1006.1F
WACHAPREAGUE VA  0748   49 48   40/ 16/ 19 1003.6F
THOMAS POINT MD  0800   43 40   20/  9/  9   N/A
GOOSES REEF MD   0750   43      10/  8/  8 1006.9F
COVE POINT MD    0748   43      10/  8/ 11 1006.1F
SOLOMONS ISLAND  0748   47 41   30/  8/ 11   N/A
BISHOPS HEAD MD  0748   45 44   30/  8/  9 1005.2F
PINEY POINT MD   0748           40/  5/  6   N/A
POTOMAC MD       0750   44      30/ 12/ 16 1003.9F
CAMBRIDGE MD     0748   47 40   30/  6/  7 1005.0F
LEWISETTA VA     0748   46 44   30/  4/  7 1004.7F
RAPPAHANNOCK LGT 0748           30/ 15/ 16 1004.4S
STINGRAY PT      0750   45      50/ 12/ 14 1004.6F
YORK RVR RNG VA  0748   49      50/ 12/ 16 1003.0F
YORKTOWN VA      0748   48 43   10/  5/  7 1003.8R
JAMESTOWN VA     0750   49     320/  2/  4   N/A
DOMINION TERM VA 0748   49      30/  7/ 12 1003.6R
CHES BAY BRIDGE  0748   47 43   40/  9/ 10 1003.0F
CAPE HENRY VA    0748   47      20/ 14/ 16   N/A
WILLOUBY STN VA  0748   47     360/ 11/ 13 1004.3R
S CRANEY ISL VA  0748   47      20/  7/  8 1003.5R
CAPE HENRY BUOY  0742      49                N/A     3/12   2/12
OFFSHORE WE BUOY 0751      49                N/A     3/12   2/12
64NM E OF VA BCH 0750   63 58  150/ 14/ 16 1002.1F   5/12   3/12
DUCK PIER NC     0748   60 46  200/ 11/ 14 1002.4R
44100 DUCK FRF   0705      48                N/A     3/13   2/13
44056 DUCK FRF   0730      46                N/A     3/13   2/13
OREGON INLET NC  0742   56 50  230/  7/  8 1003.2S
HATTERAS NC      0748   63 55  230/ 12/ 19 1003.6R
DIAMOND SHLS NC  0750   72 73  240/ 21/ 27 1003.3R   7/ 6   3/14
CAPE LOOKOUT NC  0700   62     250/ 12/ 14 1003.9R
$$




USA.gov is the U.S. government's official web portal to all federal, state and local government web resources and services.